{"data":{"norad_id":66498,"intl_designator":"2025-263P","name":"STARLINK-35907","alt_names":[],"object_type":"PAYLOAD","status":"ACTIVE","operator":null,"country":"US","launch_date":"2025-11-15","launch_site_code":"AFETR","launch_vehicle":null,"mission":null,"orbit_class":"UNKNOWN","rcs_meters":null,"size_class":null,"mass_kg":null,"dimensions":null,"purposes":["comms"],"wikipedia_slug":null,"has_3d_model":false,"image_url":null,"decayed_at":null,"tle_current":{"epoch":"2026-09-20T21:55:40.555776Z","epoch_age_seconds":53608,"freshness":"FRESH","line1":"1 66498U 25263P   26263.91366384  .00012291  00000+0  45540-3 0  9995","line2":"2 66498  43.0020 328.3697 0001341 264.5646  95.5053 15.27582265 48758","mean_motion":15.27582265,"eccentricity":0.0001341,"inclination_deg":43.002,"raan_deg":328.3697,"arg_perigee_deg":264.5646,"mean_anomaly_deg":95.5053,"bstar":0.0004554,"rev_number":4875,"period_min":94.266608941025,"perigee_km":482.12222967722,"apogee_km":483.96239796919,"semimajor_km":6861.1793138232,"source":"CELESTRAK","updated_at":"2026-09-21T09:00:35.921683Z"}}}